Regional Weather Roundup
Issued by NWS Sterling, VA

Home | Current Version | Previous Version | Text Only | Print | Product List | Glossary On
Versions: 1 2 3 4 5 6 7 8 9 10 11 12 13 14 15 16 17 18 19 20 21 22 23 24 25 26 27 28 29 30 31 32 33 34 35 36 37 38 39 40 41 42 43 44 45 46 47 48 49 50
000
ASUS41 KLWX 180010
RWRLWX

REGIONAL WEATHER ROUNDUP
NATIONAL WEATHER SERVICE BALTIMORE MD/WASHINGTON DC
700 PM EST WED DEC 17 2014

Note: "FAIR" indicates few or no clouds below 12,000 feet
with no significant weather and/or obstructions to visibility.
 TC=TEMPERATURE CELSIUS

 * =Non NWS site. Station does not report precipitation (e.g. rain,
    snow, etc.), thunder, or fog.

DCZ001-MDZ009-015-VAZ040>042-051-053>054-180100-
WASHINGTON METRO

CITY           SKY/WX    TMP DP  RH WIND       PRES   REMARKS
WASHINGTON NAT CLEAR     46  25  43 NW12      30.03R
DULLES         PTCLDY    40  25  55 NW10      30.04R
FT BELVOIR     CLEAR     44  26  49 NW7       30.03R
QUANTICO       PTCLDY    44  26  49 N9G21     30.04R
COLLEGE PARK*  CLEAR     45  27  49 NW8       30.02R
LEESBURG*      CLEAR     41  30  65 NW10      30.05R
MANASSAS*      CLEAR     41  28  60 N8G17     30.03R
GAITHERSBURG*  CLEAR     37  25  60 NW3       30.06R

$$

MDZ006>007-011-014-180100-
BALTIMORE METRO

CITY           SKY/WX    TMP DP  RH WIND       PRES   REMARKS
BWI AIRPORT    PTCLDY    41  26  55 W9        30.02R
MD SCIENCE CTR   N/A     42  26  53 MISG      30.02R
MARTIN STATE   PTCLDY    43  28  56 W16       30.04R
ANNAPOLIS        N/A     45  28  51 NW9       30.01R
FORT MEADE*    CLEAR     39  28  65 NW5       30.04R

$$

MDZ012-015-019>023-180100-
MARYLAND EASTERN SHORE

CITY           SKY/WX    TMP DP  RH WIND       PRES   REMARKS
OCEAN CITY     CLEAR     36  32  85 W3        29.99R
SALISBURY      CLEAR     42  34  73 W3        29.99R
BAY BRIDGE AP*   N/A     43  32  65 NW7       30.02R
CAMBRIDGE*     CLEAR     46  32  57 NW10G16   30.00R

$$

MDZ017>025-180100-
SOUTHERN MARYLAND

CITY           SKY/WX    TMP DP  RH WIND       PRES   REMARKS
PATUXENT RIVER PTCLDY    45  31  58 NW12      30.01R
ST INIGOES     CLEAR     47  31  53 NW3       30.01R
LEONARDTOWN*   CLEAR     45  30  57 CALM      30.02R

$$

MDZ003>005-180100-
NORTH CENTRAL MARYLAND

CITY           SKY/WX    TMP DP  RH WIND       PRES   REMARKS
FREDERICK*     PTCLDY    39  23  52 NW13      30.06R
HAGERSTOWN APT CLOUDY    38  23  55 NW16      30.03R WCI  29
WESTMINSTER*   PTCLDY    37  27  65 W8        30.01R

$$

MDZ501>502-180100-
WESTERN MARYLAND

CITY           SKY/WX    TMP DP  RH WIND       PRES   REMARKS
OAKLAND*       CLOUDY    27 N/A N/A W15G23    29.98R WCI  15
CUMBERLAND*    CLOUDY    36  23  60 W7G20     30.11R

$$

VAZ025>031-180100-
SHENANDOAH VALLEY

CITY           SKY/WX    TMP DP  RH WIND       PRES   REMARKS
WINCHESTER*    PTCLDY    37  21  52 NW15G22   30.05R WCI  28
FRONT ROYAL*   FAIR      37  27  65 NW3       30.03R
LURAY*         FAIR      43  27  52 W10       30.04R
NEW MARKET*    FAIR      39  23  53 NW7       30.04R
STAUNTON*      CLEAR     39  21  49 W3        30.05R
WAYNESBORO*    FAIR      39  22  51 W12       30.03R

$$

WVZ021-048>050-054>055-180100-
EASTERN WEST VIRGINIA PANHANDLE

CITY           SKY/WX    TMP DP  RH WIND       PRES   REMARKS
MARTINSBURG    PTCLDY    40  22  48 W9        30.05R
PETERSBURG*    CLOUDY    38  21  50 SW3       30.09R

$$

VAZ036>039-050-180100-
CENTRAL FOOTHILLS

CITY           SKY/WX    TMP DP  RH WIND       PRES   REMARKS
CHARLOTTESVILL CLEAR     45  25  45 VRB5      30.01R
CULPEPER*      CLEAR     45  28  53 N10G17    30.02S
ORANGE*        CLEAR     37  30  75 CALM      30.03R
GORDONSVILLE*  FAIR      37  32  81 CALM      30.01R
WARRENTON*     FAIR      40  32  74 CALM      30.02R

$$

VAZ055>057-180100-
NORTH AND CENTRAL PIEDMONT

CITY           SKY/WX    TMP DP  RH WIND       PRES   REMARKS
FREDERICKSBRG* CLEAR     47  32  57 N5        30.02R
STAFFORD*      CLEAR     41  29  61 N6        30.06R

$$

NCZ024-NYZ072-PAZ021-071-VAZ022-071-180100-
OTHER REGIONAL OBSERVATIONS

CITY           SKY/WX    TMP DP  RH WIND       PRES   REMARKS
NEW YORK CITY  CLOUDY    47  34  60 MISG      29.90R
PHILADELPHIA   PTCLDY    45  27  49 W13       29.97R
PITTSBURGH     FLURRIES  31  22  69 W14G21    30.09R WCI  21
ROANOKE        CLEAR     43  25  49 W3        30.09R
RICHMOND       MOCLDY    49  34  56 W8        30.01R
RALEIGH        MOCLDY    49  36  61 CALM      30.06R

$$

ANZ530>537-180100-
MARINE OBSERVATIONS

STATION/POSITION TIME  TEMP    WIND        PRES
                       AIR SEA DIR/SP/G
                 (UTC) (F)     (DEG/KT/KT) (MB)
THOMAS PT LIGHT  0000   45 43  330/  6/  7 1017.5R
BALT KEY BRIDGE  0000   45     290/ 18/ 22 1015.9S
COVE POINT       0000   47     340/ 12/ 13 1015.9R
LEWISETTA        0000   49 45   10/  4/  6 1015.8R
SOLOMONS ISLAND  0000      44                N/A
PINEY POINT      0000          340/  9/ 10   N/A

$$




USA.gov is the U.S. government's official web portal to all federal, state and local government web resources and services.